This demonstration page uses our WeatherBlox Daily Observations layout. Learn more.

Left ArrowRight Arrow

Hourly Observations for April 7, 2021

Temp ( °F °C ) Dew Point ( °F °C ) Humidity (%) Winds ( mph kmh ) Pressure ( in mb ) Visibility ( mi km ) Precip ( " mm )
12:53 am 00:53 Partly Cloudy 67 19.4 59 15 76 76 SSE 17 28 29.51 999 10 16.0934 0 0
1:33 am 01:33 Mostly Cloudy 68 20 60 15.6 76 76 SW 12 19 29.55 1001 10 16.0934 0 0
1:53 am 01:53 Mostly Cloudy 66 18.9 59 15 78 78 S 10 17 29.54 1000 10 16.0934 0 0
2:43 am 02:43 Mostly Cloudy 65 18.3 59 15 81 81 W 14 22 29.54 1000 10 16.0934 0.001 0.001
2:53 am 02:53 Mostly Cloudy 58 14.4 51 10.6 78 78 NW 24 39 29.55 1001 10 16.0934 0.001 0.001
3:00 am 03:00 Cloudy 55 12.8 49 9.4 80 80 NW 20 31 29.58 1002 10 16.0934 0 0
3:53 am 03:53 Cloudy 51 10.6 43 6.1 74 74 NNW 22 35 29.58 1002 10 16.0934 0 0
4:53 am 04:53 Cloudy 50 10 42 5.6 74 74 NNW 16 26 29.59 1002 10 16.0934 0 0
5:53 am 05:53 Cloudy 49 9.4 42 5.6 77 77 NW 16 26 29.6 1003 10 16.0934 0 0
6:53 am 06:53 Cloudy 47 8.3 41 5 80 80 WNW 17 28 29.64 1004 10 16.0934 0 0
7:53 am 07:53 Cloudy 47 8.3 40 4.4 77 77 NW 16 26 29.65 1004 10 16.0934 0 0
8:53 am 08:53 Cloudy 46 7.8 39 3.9 77 77 WNW 21 33 29.67 1005 10 16.0934 0 0
9:53 am 09:53 Cloudy 46 7.8 39 3.9 77 77 NW 20 31 29.7 1006 10 16.0934 0 0
10:53 am 10:53 Cloudy 47 8.3 39 3.9 74 74 NW 15 24 29.71 1006 10 16.0934 0 0
11:53 am 11:53 Cloudy 47 8.3 38 3.3 71 71 W 15 24 29.72 1006 10 16.0934 0 0
12:53 pm 12:53 Cloudy 47 8.3 38 3.3 71 71 WNW 14 22 29.71 1006 10 16.0934 0 0
1:53 pm 13:53 Cloudy 48 8.9 38 3.3 68 68 WNW 20 31 29.71 1006 10 16.0934 0 0
2:53 pm 14:53 Cloudy with Light Rain 50 10 38 3.3 63 63 NW 20 31 29.71 1006 10 16.0934 0.001 0.001
3:53 pm 15:53 Cloudy 49 9.4 38 3.3 66 66 WNW 23 37 29.71 1006 10 16.0934 0.001 0.001
4:53 pm 16:53 Cloudy 44 6.7 36 2.2 73 73 WNW 24 39 29.73 1007 10 16.0934 0 0
5:53 pm 17:53 Mostly Cloudy with Light Rain 44 6.7 38 3.3 79 79 WNW 23 37 29.73 1007 10 16.0934 0.001 0.001
6:53 pm 18:53 Cloudy with Light Rain 43 6.1 39 3.9 86 86 WNW 18 30 29.74 1007 10 16.0934 0.001 0.001
7:14 pm 19:14 Cloudy with Light Rain 43 6.1 40 4.4 89 89 W 17 28 29.76 1008 10 16.0934 0.001 0.001
7:53 pm 19:53 Cloudy with Light Rain 44 6.7 40 4.4 85 85 WNW 15 24 29.74 1007 10 16.0934 0.01 0.254
8:33 pm 20:33 Cloudy 44 6.7 39 3.9 83 83 WNW 24 39 29.76 1008 10 16.0934 0.001 0.001
8:53 pm 20:53 Cloudy 44 6.7 39 3.9 83 83 WNW 15 24 29.75 1007 10 16.0934 0.001 0.001
9:53 pm 21:53 Cloudy 45 7.2 39 3.9 80 80 WNW 20 31 29.76 1008 10 16.0934 0 0
10:38 pm 22:38 Cloudy 44 6.7 39 3.9 83 83 WNW 20 31 29.78 1008 10 16.0934 0 0
10:53 pm 22:53 Cloudy 44 6.7 39 3.9 83 83 WNW 20 31 29.75 1007 10 16.0934 0 0
11:53 pm 23:53 Mostly Cloudy 43 6.1 39 3.9 86 86 WNW 17 28 29.72 1007 10 16.0934 0 0

Powered by AerisWeather